Regional Weather Roundup
Issued by NWS

Home | Current Version | Previous Version | Text Only | Print | Product List | Glossary On
Versions: 1 2 3 4 5 6 7 8 9 10 11 12 13 14 15 16 17 18 19 20 21 22 23 24 25 26 27 28 29 30 31 32 33 34 35 36 37 38 39 40 41 42 43 44 45 46 47 48 49 50
000
ASUS43 KMKX 231700
RWRWI

WISCONSIN REGIONAL WEATHER ROUNDUP
NATIONAL WEATHER SERVICE MILWAUKEE/SULLIVAN WI
1200 PM CDT SUN APR 23 2017

NOTE: "FAIR" INDICATES FEW OR NO CLOUDS BELOW 12,000 FEET WITH NO
SIGNIFICANT WEATHER AND/OR OBSTRUCTIONS TO VISIBILITY.

WIZ001-002-006>008-014>016-023>028-231800-
NORTHWEST WISCONSIN

CITY           SKY/WX    TMP DP  RH WIND       PRES   REMARKS
SUPERIOR ARPT  LGT SNOW  33  31  91 E10G21    30.21S WCI  25
ASHLAND        CLOUDY    36  32  85 NE10      30.22R WCI  28
HAYWARD        LGT RAIN  38  33  82 NE12      30.15F WCI  30
SIREN          CLOUDY    44  34  67 NE10      30.13F
CUMBERLAND     MOSUNNY   46  36  66 NE13      30.11F
RICE LAKE      SUNNY     49  38  64 NE9       30.12F
CHETEK         MOSUNNY   51  40  66 E9        30.11S
LADYSMITH      PTSUNNY   47  38  72 E10       30.14F
EAU CLAIRE     SUNNY     58  40  51 VRB3      30.08F
MENOMONIE      SUNNY     57  40  53 SE3       30.09F
NEW RICHMOND   SUNNY     56  40  53 E10       30.09F
OSCEOLA        MOSUNNY   53  42  65 N9        30.12F
$$

WIZ003>005-009-010-017-018-231800-
NORTH CENTRAL WISCONSIN

CITY           SKY/WX    TMP DP  RH WIND       PRES   REMARKS
MANITOWISH WTR CLOUDY    36  36  99 NE6       30.15S WCI  31
ARBOR VITAE    CLOUDY    38  34  85 NE6       30.13F WCI  34
WOODRUFF       CLOUDY    38  34  85 NE6       30.13F WCI  34
RHINELANDER    CLOUDY    45  35  68 E9        30.12F
EAGLE RIVER    CLOUDY    36  31  83 E8        30.14S WCI  29
LAND O LAKES   CLOUDY    35  32  87 E7        30.16F WCI  30
PHILLIPS       CLOUDY    43  35  74 NE9       30.12S
TOMAHAWK       CLOUDY    43  37  79 E6        30.13S
MEDFORD        SUNNY     54  41  60 NE5       30.09S
MERRILL        PTSUNNY   51  40  66 NE13      30.11R
$$

WIZ029-030-035-036-043>047-231800-
CENTRAL WISCONSIN

CITY           SKY/WX    TMP DP  RH WIND       PRES   REMARKS
WAUSAU         SUNNY     59  39  47 CALM      30.06F
MOSINEE        MOSUNNY   61  39  44 VRB5      30.08F
MARSHFIELD     SUNNY     62  39  42 SW7       30.06F
STEVENS POINT  SUNNY     61  37  41 CALM      30.08F
WAUPACA        SUNNY     69  35  28 NW10      30.07F
WAUTOMA        SUNNY     69  37  30 W17       30.06F
WISC RAPIDS    SUNNY     67  38  34 NW9G17    30.07F
CAMP DOUGLAS   NOT AVBL
$$

WIZ011>013-019>022-031-037>040-048>050-231800-
NORTHEAST WISCONSIN

CITY           SKY/WX    TMP DP  RH WIND       PRES   REMARKS
ANTIGO         CLOUDY    48  40  73 NE12      30.10F
SHAWANO        PTSUNNY   53  42  65 NE12      30.14S
OCONTO         MOSUNNY   44  35  69 E13       30.17R
STURGEON BAY   MOSUNNY   44  33  65 N17       30.17R
GREEN BAY      SUNNY     48  41  76 NE22      30.14S
MANITOWOC      NOT AVBL
APPLETON       MOSUNNY   54  37  54 E20       30.08R
CLINTONVILLE   SUNNY     57  39  51 E13       30.11R
OSHKOSH        SUNNY     66  39  37 NE6       30.06F
$$

WIZ032>034-041-042-053>061-231800-
SOUTHWEST WISCONSIN

CITY           SKY/WX    TMP DP  RH WIND       PRES   REMARKS
LA CROSSE      SUNNY     69  38  32 W3        30.07F
SPARTA         SUNNY     66  37  34 W7        30.08F
VIROQUA        SUNNY     65  34  31 W13       30.10S
BOSCOBEL       SUNNY     70  34  26 W9        30.09F
PRAIRIE DU CHI SUNNY     67  33  28 SW3       30.09F
PLATTEVILLE    SUNNY     65  36  33 NW6       30.12F
$$

WIZ056-057-062-063-064-067-068-231800-
SOUTH CENTRAL WISCONSIN

CITY           SKY/WX    TMP DP  RH WIND       PRES   REMARKS
REEDSBURG      SUNNY     67  38  34 NW9       30.08F
BARABOO/DELLS  SUNNY     67  35  30 W12G20    30.08F
LONE ROCK      NOT AVBL
MINERAL POINT  SUNNY     66  34  30 W5        30.11F
MADISON        MOSUNNY   67  34  29 NW9       30.08F
MIDDLETON      SUNNY     68  34  28 W6        30.10F
WATERTOWN      SUNNY     66  37  34 W8        30.09F
MONROE         SUNNY     63  34  34 W10       30.11F
JANESVILLE     SUNNY     68  32  26 W12       30.10F
$$

WIZ051-052-058>065-066-070>072-231800-
SOUTHEAST WISCONSIN

CITY           SKY/WX    TMP DP  RH WIND       PRES   REMARKS
MILWAUKEE      SUNNY     69  33  26 W10       30.09F
WAUKESHA       SUNNY     64  34  32 W12       30.11F
MILWAUKEE/TIMM SUNNY     66  30  26 W6        30.09F
RACINE         SUNNY     67  33  28 VRB6      30.11F
KENOSHA        SUNNY     66  35  31 VRB7      30.10F
FOND DU LAC    SUNNY     68  36  30 W8        30.06F
SHEBOYGAN      SUNNY     48  41  76 NE20      30.12R
WEST BEND      SUNNY     64  36  34 W9        30.08F
JUNEAU         SUNNY     65  39  38 SW8       30.09F
$$

LSZ147-162-231800-
LAKE SUPERIOR

STATION/POSITION TIME  TEMP    WIND        PRES    WAVE
                       AIR SEA DIR/SP/G            HT/PER
                 (UTC) (F)     (DEG/KT/KT) (MB)    (FT/S)
DEVILS ISLAND    1600   34      60/ 15/ 16 1024.7R
PORT WING        1640   36      40/ 14/ 18 1023.4S
SAXON HARBOR     1640   36      50/ 19/ 22 1022.4F
$$

LMZ867-665-643>646-231800-
LAKE MICHIGAN

STATION/POSITION TIME  TEMP    WIND        PRES    WAVE
                       AIR SEA DIR/SP/G            HT/PER
                 (UTC) (F)     (DEG/KT/KT) (MB)    (FT/S)
CHAMBERS ISLAND  1640   38      20/ 13/ 15 1021.7S
N MID LAKE BUOY  1550   37 37   30/ 14/ 17 1022.9R   2/ 4
NORTHPORT PIER   1640   39     360/ 13/ 15 1022.0R
SISTER BAY       1521   42      10/ 16/ 20   N/A
KEWAUNEE LAKESHO 1630   41      40/ 18/ 23 1020.9R
SHEBOYGAN LAKESH 1600           20/ 15/ 16 1020.2R
PORT WASHINGTON  1630   68     240/  8/ 12 1019.3F
MILWAUKEE LAKESH 1630   64     250/  7/  9   N/A
KENOSHA   LAKESH 1600   63     230/  4/  9 1019.6
$$

TC  - TEMPERATURE IN CELSIUS
VSB - VISIBILITY IN STATUTE MILES
WCI - WIND CHILL INDEX
HX  - HEAT INDEX





USA.gov is the U.S. government's official web portal to all federal, state and local government web resources and services.